This demonstration page uses our WeatherBlox Daily Observations layout. Learn more.

Left ArrowRight Arrow

38.20091, -84.87328

Hourly Observations for January 10, 2020

Temp ( °F °C ) Dew Point ( °F °C ) Humidity (%) Winds ( mph kmh ) Pressure ( in mb ) Visibility ( mi km ) Precip ( " mm )
12:53 am 00:53 Clear 57 13.9 38 3.3 49 49 S 15 24 30.20 1023 10 16 0.00 0.00
1:53 am 01:53 Mostly Clear 55 12.8 39 3.9 55 55 S 13 20 30.21 1023 10 16 0.00 0.00
2:53 am 02:53 Mostly Cloudy 56 13.3 40 4.4 55 55 S 14 22 30.22 1023 10 16 0.00 0.00
3:53 am 03:53 Cloudy 56 13.3 41 5 57 57 S 10 17 30.22 1023 10 16 0.00 0.00
4:53 am 04:53 Cloudy 56 13.3 42 5.6 60 60 S 12 19 30.21 1023 10 16 0.00 0.00
5:53 am 05:53 Cloudy 55 12.8 42 5.6 62 62 S 9 15 30.22 1023 10 16 0.00 0.00
6:53 am 06:53 Cloudy 56 13.3 43 6.1 62 62 S 8 13 30.23 1024 10 16 0.00 0.00
7:53 am 07:53 Cloudy 57 13.9 44 6.7 62 62 S 7 11 30.22 1024 10 16 0.00 0.00
8:53 am 08:53 Cloudy 59 15 46 7.8 62 62 S 12 19 30.23 1024 10 16 0.00 0.00
9:53 am 09:53 Cloudy 62 16.7 47 8.3 58 58 S 18 30 30.24 1024 10 16 0.00 0.00
10:53 am 10:53 Cloudy 64 17.8 48 8.9 56 56 S 15 24 30.25 1024 10 16 0.00 0.00
11:53 am 11:53 Cloudy 65 18.3 48 8.9 54 54 SSW 18 30 30.23 1024 10 16 0.00 0.00
12:53 pm 12:53 Cloudy 65 18.3 49 9.4 56 56 SSW 21 33 30.21 1023 10 16 0.00 0.00
1:53 pm 13:53 Cloudy 65 18.3 49 9.4 56 56 S 16 26 30.19 1022 10 16 0.00 0.00
2:53 pm 14:53 Cloudy 66 18.9 50 10 56 56 S 20 31 30.16 1022 10 16 0.00 0.00
3:53 pm 15:53 Mostly Cloudy 67 19.4 50 10 55 55 S 15 24 30.16 1021 10 16 0.00 0.00
4:53 pm 16:53 Mostly Cloudy 66 18.9 51 10.6 59 59 S 16 26 30.16 1021 10 16 0.00 0.00
5:53 pm 17:53 Cloudy 64 17.8 51 10.6 63 63 S 12 19 30.15 1021 10 16 0.00 0.00
6:53 pm 18:53 Cloudy with Light Rain 62 16.7 53 11.7 73 73 S 9 15 30.15 1021 10 16 0.00 0.00
7:53 pm 19:53 Cloudy with Light Rain 58 14.4 55 12.8 90 90 Calm 30.14 1021 10 16 0.04 1.02
8:53 pm 20:53 Cloudy 57 13.9 55 12.8 93 93 E 6 9 30.11 1020 10 16 0.04 1.02
9:53 pm 21:53 Mostly Cloudy 56 13.3 54 12.2 93 93 SE 5 7 30.08 1019 9 14 0.00 0.00
10:53 pm 22:53 Mostly Cloudy 58 14.4 53 11.7 84 84 SSE 8 13 30.04 1017 10 16 0.00 0.00
11:53 pm 23:53 Cloudy 62 16.7 53 11.7 73 73 S 15 24 30.01 1016 10 16 0.01 0.25

Powered by AerisWeather